Regional Weather Roundup
Issued by NWS Pendleton, OR

Home | Current Version | Previous Version | Text Only | Print | Product List | Glossary On
Versions: 1 2 3 4 5 6 7 8 9 10 11 12 13 14 15 16 17 18 19 20 21 22 23 24 25 26 27 28 29 30 31 32 33 34 35 36 37 38 39 40 41 42 43 44 45 46 47 48 49 50
000
ASUS46 KPDT 020225
RWRPDT
PENDLETON REGIONAL WEATHER ROUNDUP
NATIONAL WEATHER SERVICE PENDLETON OREGON
600 PM PST SUN FEB 1 2015

NOTE: FAIR INDICATES FEW OR NO CLOUDS BELOW 12,000 FEET WITH NO
SIGNIFICANT WEATHER AND/OR OBSTRUCTIONS TO VISIBILITY.

# INDICATES UNOFFICIAL STATION AND DATA

WAZ520-020310-
EAST SLOPES OF WASHINGTON CASCADES

CITY            SKY/WX      TMP DP  RH  WIND    PRES   REMARKS
#BUMPING DAM    N/A         36  N/A N/A CALM    N/A
#CLE ELUM HS    N/A         33  32  96  CALM    29.99R
#CLE ELUM LAKE  N/A         34  33  96  E3      30.09R
#CLIFFDEL 2NW   N/A         33  32  96  CALM    N/A
#GLENWOOD       N/A         41  39  93  S3      30.11R
#MANASTASH CYN  N/A         32  29  89  CALM    29.99R
#NELSON         N/A         33  32  96  CALM    30.10R
#NELSON 3SW     N/A         31  30  96  CALM    30.31R
#NILE           N/A         33  31  92  CALM    29.36R
#RONALD 2NW     N/A         33  23  66  CALM    29.87R
#SNOWDEN        N/A         31  29  92  CALM    N/A
#TEANAWAY 4NE   N/A         33  33  100 CALM    N/A
#TROUT LAKE 1NE N/A         39  38  96  W5      30.13R
$$

WAZ521-020310-
SIMCOE HIGHLANDS

CITY            SKY/WX      TMP DP  RH  WIND    PRES   REMARKS
#BICKLETON HS   N/A         39  39  100 W7      N/A
#CENTERVILLE 4W N/A         41  39  93  NW8     29.82R
#CENTERVILLE 1SWN/A         39  36  89  SW7     30.09S
#GOLDENDALE     N/A         38  36  92  CALM    N/A
#GOLDENDALE 1NE N/A         38  30  73  CALM    N/A
#GOLDENDALE 1S  N/A         36  36  100 E5      30.05R
#GOLDENDALE 5WNWN/A         37  35  92  CALM    30.12R
#GOODNOE HILLS  N/A         37  34  89  W12     N/A    WCI 29
#LYLE 6NE       N/A         35  34  96  CALM    30.11R
$$

WAZ026-020310-
KITTITAS VALLEY

CITY            SKY/WX      TMP DP  RH  WIND    PRES   REMARKS
ELLENSBURG AP   MOCLDY      36  31  82  E5      30.04R
#ELLENSBURG CWU N/A         36  32  85  SE2     30.05R
#ELLENSBURG 3NE N/A         34  31  89  CALM    30.04R
#ELLENSBURG 1E  N/A         36  30  79  CALM    N/A
#KITTITAS 4N    N/A         34  30  85  CALM    28.36R
#KITTITAS 3S    N/A         35  32  89  CALM    30.09R
#THORP 6N       N/A         32  32  100 E5      30.13R
$$

WAZ027-020310-
YAKIMA VALLEY

CITY            SKY/WX      TMP DP  RH  WIND    PRES   REMARKS
SUNNYSIDE AP    CLOUDY      37  34  89  NE5     30.10R
YAKIMA AIRPORT  CLOUDY      39  32  76  CALM    30.09R
YAKIMA-VAGABOND CLOUDY      36  32  85  E3      30.07R
#DONALD 2NE     N/A         37  32  82  CALM    28.95R
#MABTON         N/A         40  38  92  CALM    30.09R
#MOXEE 2E       N/A         37  32  82  CALM    30.05R
#NACHES 2SW     N/A         35  33  92  CALM    30.03R
#OUTLOOK DOT    N/A         N/A N/A N/A SW2     N/A
#SELAH 8E       N/A         33  32  96  CALM    N/A
#TERRACE HTS    N/A         36  33  89  CALM    30.10R
#TOPPENISH      N/A         38  35  89  CALM    30.05R
#WAPATO 4NE     N/A         37  32  82  CALM    28.95R
#WEST VALLEY    N/A         38  34  85  CALM    30.11R
#W YAKIMA       N/A         37  33  85  CALM    30.13R
#WHITE SWAN 5E  N/A         38  35  89  CALM    30.13R
#WILEY CITY 3W  N/A         35  27  72  CALM    30.09R
$$

WAZ028-020310-
LOWER COLUMBIA BASIN...WASHINGTON

CITY            SKY/WX      TMP DP  RH  WIND    PRES   REMARKS
PASCO           MOCLDY      39  36  89  CALM    30.12R
PROSSER AWOS    N/A         39  39  100 N5      30.14
RICHLAND AWOS   CLOUDY      39  36  89  CALM    30.12R
#BASIN CITY 5SW N/A         37  36  96  S1      30.10R
#BENTON CITY    N/A         38  35  89  N1      30.03R
#CONNELL 5N     N/A         35  34  96  CALM    30.12R
#CONNELL 5NW    N/A         35  34  96  S2      30.08S
#ELTOPIA 6NW    N/A         36  35  96  S3      29.05R
#KAHLOTUS       N/A         34  33  96  S1      30.13R
#KENNEWICK 3S   N/A         37  35  92  CALM    30.13R
#PASCO-BROADMOORN/A         38  34  85  CALM    30.03
#PATERSON       N/A         37  35  92  NE1     30.11R
#PROSSER        N/A         38  34  85  SW2     30.11R
#SAGEMOOR 2W    N/A         37  35  92  CALM    29.97R
#TOUCHET 2S     N/A         38  37  96  CALM    30.12R
#WEST PASCO     N/A         39  36  89  SW1     30.08R
$$

WAZ029-020310-
FOOTHILLS OF THE BLUES...WASHINGTON

CITY            SKY/WX      TMP DP  RH  WIND    PRES   REMARKS
WALLA WALLA AP  LGT RAIN    39  36  89  E3      30.08R
#DAYTON SCHOOL  N/A         35  30  82  S2      30.09R
#LOWDEN 2SE     N/A         39  38  96  CALM    30.08R
#PLEASANT VIEW 1N/A         33  32  96  CALM    30.18R
#PRESCOTT       N/A         36  35  96  CALM    30.13R
#SUDBURY        N/A         42  N/A N/A CALM    N/A
#WHITMAN COLLEGEN/A         38  37  96  S2      30.18R
#WAITSBURG 5S   N/A         35  34  96  S1      30.24R
#WAITSBURG 8N   N/A         34  28  78  S6      29.94R
#WALLA WALLA 5E N/A         38  37  96  NE1     N/A
#WALLA WALLA U  N/A         40  39  96  CALM    30.13R
#WHITMAN MISSIONN/A         39  38  96  CALM    30.14R
$$

WAZ030-020310-
BLUE MOUNTAINS...WASHINGTON

CITY            SKY/WX      TMP DP  RH  WIND    PRES   REMARKS
#DIXIE 5SE      N/A         39  37  92  S12     29.97R WCI 32
$$

ORZ009-041-WAZ024-020310-
COLUMBIA RIVER GORGE

CITY            SKY/WX      TMP DP  RH  WIND    PRES   REMARKS
HOOD RIVER AP   CLOUDY      39  37  92  CALM    30.12S FOG
THE DALLES AP   CLOUDY      41  38  89  CALM    30.13S
#ARLINGTON AIRPON/A         38  36  92  SW6     30.02S
#ARLINGTON HS   N/A         41  36  82  CALM    30.07R
#CELILO DOT     N/A         41  32  70  S2      N/A
#LYLE           N/A         40  38  92  CALM    30.15S
#MOSIER 1S      N/A         37  34  89  CALM    30.12S
#MURDOCK        N/A         41  39  93  NW1     30.16S
#RUFUS DOT      N/A         42  32  67  CALM    N/A

$$

ORZ510-020310-
NORTH CENTRAL OREGON

CITY            SKY/WX      TMP DP  RH  WIND    PRES   REMARKS
#CHENOWITH 1W   N/A         38  38  100 W7      N/A
#COW CYN RST AREN/A         42  41  96  NW1     N/A
#DUFUR 9E       N/A         37  37  100 CALM    30.21R
#GRASS VALLEY 1SN/A         37  36  96  CALM    30.18R
#KENT DOT       N/A         40  33  76  W2      N/A
#MAUPIN SCHOOL  N/A         41  37  86  CALM    30.11R
#MORO SCHOOL    N/A         39  39  100 SW1     30.09S
#SHANIKO 5WSW   N/A         41  34  76  SW6     N/A
#SHANIKO 4NW    N/A         41  39  93  SW12    30.06R WCI 34
#TYGH VALLEY 2NEN/A         39  36  89  CALM    30.13R
#WAPANITIA AIRPON/A         38  36  92  CALM    30.15R
#WASCO DOT      N/A         39  35  85  CALM    N/A
#WASCO AIRPORT  N/A         38  35  89  W3      N/A
#WASCO 5NE      N/A         37  35  92  SW1     30.14R
$$

ORZ511-020310-
CENTRAL OREGON

CITY            SKY/WX      TMP DP  RH  WIND    PRES   REMARKS
BEND AIRPORT    MOCLDY      45  39  79  E3      30.09R
MADRAS AIRPORT  N/A         37  36  96  N6      30.09R
PRINEVILLE AP   MOCLDY      39  39  100 CALM    30.10R
REDMOND AIRPORT MOCLDY      42  38  86  CALM    30.07S
#BEND 1SW       N/A         45  41  86  S2      N/A
#BEND-AWBREY    N/A         44  41  89  NE2     30.16R
#BEND-KIM LN    N/A         46  41  83  CALM    30.05R
#CROOKED RVR RANN/A         48  42  80  SW2     30.15R
#CULVER         N/A         43  38  82  CALM    30.03R
#LAKE BILLY CHINN/A         40  30  67  E3      30.17R
#POWELL BUTTE 3EN/A         45  41  86  E3      N/A
#POWELL BUTTE   N/A         45  40  82  CALM    29.71S
#PRINEVILLE 3N  N/A         38  37  96  N1      30.13R
#WARM SPRINGS   N/A         40  36  85  CALM    30.07R

$$


ORZ509-020310-
EAST SLOPES OF OREGON CASCADES

CITY            SKY/WX      TMP DP  RH  WIND    PRES   REMARKS
#BLUE BOX PASS  N/A         40  -11 11  NW2     N/A
#CAMP SHERMAN   N/A         47  40  76  CALM    30.14R
#LA PINE DOT    N/A         45  39  79  W1      N/A
#LA PINE 4NW    N/A         45  40  82  CALM    30.20S
#LAVA BUTTE DOT N/A         43  39  86  SE6     N/A
#MT BACHELOR-MIDN/A         32  31  96  E23G35  N/A    WCI 19
#SISTERS AIRPOR N/A         48  45  89  N7      30.17S
#SISTERS ODOT   N/A         49  N/A N/A SE8     N/A
#SISTERS 1NW    N/A         48  39  71  NW6     N/A
#SISTERS 3N     N/A         45  38  76  CALM    30.07S
#SUNRIVER       N/A         43  41  93  S1      30.06R
#TUMALO 3W      N/A         42  40  93  E1      30.06S
#WANOGA BUTTE D N/A         37  35  92  NW9     N/A

$$

ORZ044-020310-
LOWER COLUMBIA BASIN...OREGON

CITY            SKY/WX      TMP DP  RH  WIND    PRES   REMARKS
HERMISTON       MOCLDY      38  36  92  S7      30.10R
#BOARDMAN SCHOOLN/A         40  36  85  CALM    30.13R
#BOARDMAN 8SW   N/A         40  37  89  SW7     30.12R
#ECHO 8SW       N/A         40  37  89  CALM    30.07R
#IONE SCHOOL    N/A         39  27  62  CALM    30.08S
#IRRIGON 4NW    N/A         39  39  100 E3      N/A
#UMATILLA SCHOOLN/A         36  36  100 E1      30.13S
#UMATILLA       N/A         39  34  82  CALM    30.08R
$$

ORZ507-020310-
NORTHERN FOOTHILLS OF THE BLUES

CITY            SKY/WX      TMP DP  RH  WIND    PRES   REMARKS
PENDLETON AIRPT CLOUDY      37  35  92  SE5     30.08R
#ADAMS 3WNW     N/A         36  34  92  CALM    30.14R
#ATHENA         N/A         36  35  96  CALM    30.16R
#CAYUSE         N/A         37  36  96  CALM    30.13R
#HELIX SCHOOL   N/A         36  35  96  CALM    30.14R
#HELIX 3N       N/A         37  35  92  S2      30.03R
#HOLDMAN 5SE    N/A         37  35  92  CALM    30.08R
#HOLDMAN 6E     N/A         36  35  96  CALM    29.94R
#M-F FERNDALE   N/A         39  37  92  CALM    30.08R
#M-F GROVE ELEM N/A         38  35  89  CALM    30.06R
#M-FREEWATER 5SEN/A         38  36  92  CALM    30.08R
#PENDLETON DNTN N/A         38  35  89  CALM    28.88S
#PDT AQUATIC CTRN/A         39  36  89  E2      30.10R
#PENDLETON 5NE  N/A         37  36  96  CALM    30.04R
#PDT SUNRIDGE   N/A         37  36  96  CALM    30.11R
#PENDLETON 7NW  N/A         37  34  89  CALM    N/A
#PILOT ROCK     N/A         38  35  89  E1      30.09R
#TUTUILLA       N/A         37  35  92  CALM    30.12R
#UMAPINE 2E     N/A         39  38  96  CALM    30.07R
#WESTON SCHOOL  N/A         42  37  82  W6      30.06R

$$

ORZ508-020310-
SOUTHERN FOOTHILLS OF THE BLUES

CITY            SKY/WX      TMP DP  RH  WIND    PRES   REMARKS
LEXINGTON       CLOUDY      37  37  100 SE8     30.10R
#AJAX           N/A         37  32  82  CALM    30.01R
#CONDON SCHOOL  N/A         38  37  96  CALM    30.02R
#CONDON 5W      N/A         40  40  100 SW12    30.03R WCI 33
#FOSSIL SCHOOL  N/A         44  39  82  CALM    30.04R
#HEPPNER EOC    N/A         38  37  96  SW1     30.10R
#HEPPNER 4NE    N/A         37  36  96  SW1     30.16R
#LEXINGTON 2SE  N/A         38  35  89  SE2     30.05R
#MIKKALO        N/A         40  39  96  NE6     30.08R
#OLEX 4N        N/A         40  38  92  SW7     30.09S
#RUGGS 5NE      N/A         40  35  82  W7      30.23R
#RUGGS 2SW      N/A         45  40  82  SW10    30.18R

$$

ORZ502-503-020310-
BLUE MOUNTAINS

CITY            SKY/WX      TMP DP  RH  WIND    PRES   REMARKS
MEACHAM         LGT RAIN    36  35  96  CALM    30.05R FOG
#BATTLE MTN DOT N/A         36  35  96  SE2     N/A
#HARDMAN 10S    N/A         39  37  92  CALM    30.26S
#HEPPNER 15SE   N/A         40  38  92  NW3     29.98R
#LADD CYN SMT   N/A         33  31  92  SE17    N/A    WCI 22
#LADD CREEK ODOTN/A         35  34  96  CALM    N/A
#LONG CREEK HS  N/A         40  40  100 CALM    30.03R
#N POWDER DOT   N/A         33  33  100 W1      N/A
#PIKES PEAK     N/A         39  37  92  SW15G26 27.99S WCI 31
#TOLLGATE       N/A         32  31  96  S7      29.94R
#TROY SCHOOL    N/A         40  38  92  CALM    29.96S
#UKIAH          N/A         39  37  92  W1      30.20R
#WESTON 4E      N/A         38  37  96  S7      30.12R
$$

ORZ505-020310-
JOHN DAY BASIN

CITY            SKY/WX      TMP DP  RH  WIND    PRES   REMARKS
JOHN DAY        CLOUDY      41  38  89  SE10    30.10R
#JOHN DAY KJDY  N/A         42  42  100 W1      30.09R
#DAYVILLE SCHOOLN/A         40  37  89  CALM    30.07S
#MITCHELL       N/A         42  42  100 CALM    30.21R
#MONUMENT HS    N/A         39  35  85  CALM    30.11R
#MT. VERNON 5SE N/A         39  37  92  CALM    30.04R
#WINLOCK        N/A         36  34  92  CALM    30.16R
$$

ORZ506-020310-
OCHOCO AND JOHN DAY HIGHLANDS

CITY            SKY/WX      TMP DP  RH  WIND    PRES   REMARKS
#BUCK CREEK DOT N/A         48  48  100 SW16    N/A    WCI 42
#HORSE RIDGE DO N/A         46  38  73  W6      N/A
#KEYES SMT DOT  N/A         39  39  100 CALM    N/A
#PAULINA SCHOOL N/A         38  27  64  CALM    30.06R
#PINE MTN OBS   N/A         37  36  96  SW7     N/A
#PRAIRIE CITY   N/A         37  34  89  CALM    30.22R
#SENECA         N/A         36  N/A N/A CALM    N/A
#SENECA 9NW     N/A         34  33  96  CALM    30.19R
$$

ORZ049-020310-
GRANDE RONDE VALLEY

CITY            SKY/WX      TMP DP  RH  WIND    PRES   REMARKS
LA GRANDE       CLOUDY      39  28  64  S14     30.07R WCI 31
#COVE           N/A         37  31  79  CALM    30.03S
#COVE SCHOOL    N/A         38  37  96  CALM    30.05R
#COVE 6NW       N/A         35  33  92  CALM    30.22R
#ELGIN 3N       N/A         36  32  85  CALM    29.88R
#ELGIN 1E       N/A         38  34  85  CALM    N/A
#IMBLER SCHOOL  N/A         36  33  89  S8      30.03R
#ISLAND CITY 4N N/A         44  43  96  CALM    30.13S
#LADD CYN DOT   N/A         38  33  82  SE15G24 N/A    WCI 29
#UNION 1S       N/A         37  34  89  S9      30.08S
$$

ORZ050-020310-
WALLOWA COUNTY

CITY            SKY/WX      TMP DP  RH  WIND    PRES   REMARKS
JOSEPH AIRPORT  CLOUDY      32  32  100 CALM    30.04R
#ENTERPRISE AP  N/A         33  31  92  CALM    29.97R
#ENTERPRISE HS  N/A         34  32  92  CALM    30.04S
#IMNAHA 10S     N/A         34  32  92  SW1     30.03F
#JOSEPH 3N      N/A         32  29  89  CALM    30.05R
#JOSEPH 3W      N/A         32  28  85  CALM    29.87R
#LOSTINE        N/A         33  32  96  CALM    29.94R
#MT HOWARD 8000 N/A         30  27  88  W12G26  29.96S WCI 20
#PROMISE 1S     N/A         35  33  92  E7      30.24R
#SHEEP RDG 7000 N/A         30  29  96  CALM    30.03R
#WALLOWA SCHOOL N/A         34  33  96  CALM    31.13R



$$



USA.gov is the U.S. government's official web portal to all federal, state and local government web resources and services.